Wetbulb
70.18 71.19 71.09 70.11 69.30 69.14 69.07 69.40 69.69 69.90 69.55 68.90 68.55 69.08 69.69 69.83 69.56 69.17 68.63 68.02 67.97 67.72 67.39 66.94 66.76 66.64 66.30 65.64 65.16 64.36 68.55 68.52
68.48 70.41 70.43 70.38 70.46 68.44 68.66 68.61 68.84 69.11 69.13 68.26 67.42 67.85 68.49 68.47 68.16 68.18 67.90 67.51 67.30 66.92 66.49 66.35 66.43 65.97 66.06 64.97 64.46 65.98 69.42 69.47
67.72 68.53 69.72 69.69 69.37 69.28 68.83 68.96 68.56 68.43 68.65 68.19 67.17 66.89 67.14 66.41 66.42 66.80 66.60 66.07 66.01 66.29 66.37 66.42 65.63 65.71 65.93 64.91 66.92 70.21 70.42 70.19
66.48 66.86 68.73 68.79 68.02 69.23 69.33 68.94 69.07 69.12 69.02 68.87 68.05 68.25 67.57 66.60 66.66 66.70 66.53 66.20 66.28 66.21 66.15 65.83 68.11 69.95 68.26 67.97 70.09 69.75 70.80 71.27
65.21 65.70 68.48 68.33 67.80 68.19 68.07 68.32 68.57 69.03 69.27 69.41 69.62 69.24 69.68 68.93 69.01 67.96 68.38 67.07 68.47 69.42 69.90 69.75 68.95 68.96 69.70 69.36 68.04 68.05 67.78 66.72
65.71 65.80 67.62 68.28 68.05 67.81 67.68 67.64 68.25 68.66 69.71 69.74 69.41 69.47 69.58 69.81 69.42 68.32 69.45 69.56 69.51 69.45 65.46 63.44 64.47 67.97 65.70 65.70 65.19 64.38 64.48 63.71
65.25 66.94 67.36 67.56 67.71 67.34 67.50 67.57 68.27 69.44 69.34 69.20 69.88 69.41 69.09 69.12 68.98 68.32 67.85 67.73 67.16 65.66 62.87 61.96 65.22 63.07 63.19 62.13 60.17 59.74 61.03 61.94
66.42 66.76 67.44 67.48 67.26 67.55 67.36 67.98 68.35 68.28 68.41 67.87 68.45 69.07 68.44 68.10 66.36 64.45 63.50 63.32 62.71 61.66 61.03 63.88 64.49 62.45 58.58 58.04 57.31 57.26 58.09 59.60
65.78 66.53 67.43 67.27 67.01 67.36 67.62 67.70 66.96 66.84 66.16 66.78 66.88 66.66 67.14 66.14 63.75 62.31 61.36 61.59 60.84 59.86 61.03 61.58 58.94 56.79 55.36 54.98 54.83 54.90 54.87 55.22
65.96 65.94 66.42 66.77 66.94 67.05 67.06 66.69 65.35 64.30 64.78 66.04 64.67 63.95 64.18 63.15 62.05 60.64 60.01 60.19 59.29 58.54 59.56 57.90 56.51 54.81 53.35 53.07 52.90 53.06 52.94 52.90
65.29 66.43 66.35 66.77 66.66 65.56 65.57 64.22 63.21 61.97 62.87 63.76 62.27 61.73 61.04 61.41 60.16 58.82 59.23 58.75 58.09 57.11 57.52 57.32 54.25 52.52 51.14 51.18 51.22 50.88 51.51 50.98
66.01 66.25 66.07 65.45 63.97 62.10 61.11 60.37 59.42 59.77 60.83 60.67 60.34 60.11 59.22 59.16 58.06 57.77 58.00 56.95 56.06 55.39 55.88 55.79 53.96 51.42 49.37 48.71 49.20 49.42 49.90 49.41
65.49 64.34 63.62 62.95 61.55 58.75 56.71 56.96 56.83 57.55 58.41 58.17 58.47 58.35 57.76 57.62 56.89 56.21 54.80 54.45 55.04 55.72 54.74 52.85 50.16 49.83 47.85 46.26 46.47 47.62 47.72 47.56
63.91 64.01 62.05 62.63 63.23 60.86 59.62 57.49 56.41 57.08 56.38 56.39 56.96 56.68 56.50 56.23 56.19 55.26 54.09 53.72 54.19 54.69 54.18 52.04 50.52 50.85 49.41 47.57 44.22 44.28 45.06 45.90
63.12 62.02 62.28 62.88 61.80 57.02 55.05 54.22 54.16 54.19 54.41 54.72 54.96 55.40 55.26 54.95 54.72 54.96 55.02 54.56 53.72 54.13 54.02 53.08 50.22 50.29 52.07 53.44 48.27 47.59 43.70 44.98
64.61 63.74 62.82 61.52 58.99 58.80 57.34 58.49 56.43 56.62 55.26 54.62 54.31 54.63 53.85 53.80 53.58 53.99 54.18 53.40 53.13 53.62 53.30 53.49 52.40 50.23 49.57 49.60 51.21 50.97 46.57 40.52
63.79 63.28 61.82 60.62 59.18 59.89 59.41 58.66 58.11 55.23 53.84 53.43 53.70 53.47 53.28 52.72 52.82 52.73 52.55 52.66 52.01 52.49 52.06 52.10 52.32 51.19 50.49 47.84 48.72 49.32 48.76 44.32
62.90 61.74 61.20 59.69 59.04 59.14 59.59 58.31 54.58 52.73 52.44 52.08 51.84 50.85 51.86 51.72 51.17 51.55 51.22 50.72 50.34 50.11 50.79 51.24 50.95 50.31 49.43 48.01 47.19 46.76 46.42 43.54
61.40 60.47 60.56 59.62 58.81 58.51 58.67 57.21 55.54 54.71 52.71 50.61 48.38 48.71 50.13 50.12 50.60 49.83 49.35 48.84 48.14 48.57 48.44 48.13 47.79 47.27 46.64 45.26 45.49 45.32 46.04 44.48
59.92 59.39 59.99 58.73 58.20 57.59 56.91 55.97 55.66 54.38 51.88 51.86 50.89 50.07 50.13 50.26 49.53 49.06 48.13 47.28 46.88 46.85 46.43 45.44 45.57 44.69 43.95 43.05 42.58 42.50 44.28 44.06
MSLP
1016.06 1016.31 1016.82 1017.12 1017.34 1017.46 1017.71 1017.89 1018.07 1018.31 1018.51 1018.67 1018.85 1019.09 1019.40 1019.63 1019.84 1020.08 1020.26 1020.36 1020.35 1020.36 1020.40 1020.41 1020.43 1020.50 1020.29 1020.20 1020.17 1020.13 1019.57 1019.69
1016.26 1016.68 1016.92 1017.26 1017.48 1017.77 1017.93 1018.15 1018.41 1018.55 1018.79 1019.02 1019.27 1019.44 1019.64 1019.84 1020.06 1020.25 1020.39 1020.39 1020.36 1020.39 1020.47 1020.56 1020.54 1020.61 1020.55 1020.45 1020.36 1020.17 1019.76 1019.74
1016.33 1016.83 1017.18 1017.60 1017.66 1017.82 1018.10 1018.36 1018.61 1018.81 1018.96 1019.20 1019.32 1019.30 1019.52 1019.75 1020.15 1020.34 1020.46 1020.47 1020.50 1020.50 1020.48 1020.53 1020.66 1020.71 1020.66 1020.63 1020.32 1020.25 1020.08 1020.09
1016.41 1016.78 1017.04 1017.61 1017.82 1018.00 1018.18 1018.34 1018.50 1018.78 1019.03 1019.24 1019.25 1019.56 1019.67 1019.80 1020.19 1020.46 1020.54 1020.54 1020.59 1020.60 1020.57 1020.44 1020.18 1020.15 1020.68 1020.67 1020.62 1020.86 1020.63 1020.66
1016.27 1016.75 1017.03 1017.32 1017.67 1018.23 1018.40 1018.56 1018.73 1018.92 1019.14 1019.31 1019.49 1019.57 1019.77 1019.86 1020.03 1020.21 1020.35 1020.56 1020.31 1020.35 1020.25 1020.23 1020.38 1020.38 1020.70 1020.94 1021.32 1021.33 1021.60 1022.13
1015.89 1016.45 1016.90 1017.30 1017.51 1017.98 1018.46 1018.63 1018.82 1018.86 1019.13 1019.34 1019.45 1019.48 1019.69 1019.84 1019.90 1020.21 1020.32 1020.38 1020.46 1020.52 1020.71 1021.09 1021.14 1021.21 1021.59 1021.89 1022.10 1022.10 1022.40 1022.88
1015.46 1015.86 1016.59 1017.31 1017.51 1017.85 1018.25 1018.68 1018.87 1019.08 1019.16 1019.36 1019.36 1019.37 1019.60 1019.80 1020.08 1020.23 1020.42 1020.56 1020.66 1020.88 1021.14 1021.59 1021.61 1021.89 1022.21 1022.55 1022.96 1023.30 1023.45 1023.53
1015.09 1015.37 1015.90 1016.65 1017.47 1017.79 1018.12 1018.56 1019.05 1019.26 1019.42 1019.48 1019.51 1019.50 1019.65 1019.80 1020.29 1020.57 1020.76 1020.99 1021.15 1021.23 1021.59 1021.74 1021.89 1022.42 1023.08 1023.45 1023.71 1024.00 1024.29 1024.35
1014.68 1015.23 1015.89 1016.56 1016.98 1017.52 1018.02 1018.47 1018.95 1019.24 1019.53 1019.74 1019.74 1019.72 1019.90 1020.02 1020.32 1020.71 1020.99 1021.26 1021.52 1021.83 1022.12 1022.33 1022.69 1023.25 1023.81 1024.22 1024.49 1024.85 1025.14 1025.29
1014.50 1015.07 1015.75 1016.35 1017.03 1017.33 1017.80 1018.37 1018.88 1019.36 1019.70 1019.87 1020.08 1020.17 1020.28 1020.36 1020.54 1020.89 1021.24 1021.49 1021.71 1021.99 1022.31 1022.70 1023.24 1023.75 1024.34 1024.75 1025.12 1025.44 1025.80 1026.01
1014.29 1014.95 1015.45 1016.16 1016.90 1017.55 1018.14 1018.63 1018.86 1019.34 1019.66 1019.97 1020.25 1020.29 1020.49 1020.55 1020.74 1021.22 1021.50 1021.59 1021.89 1022.10 1022.63 1022.99 1023.63 1024.34 1024.91 1025.46 1025.90 1026.18 1026.30 1026.52
1014.04 1014.80 1015.47 1016.23 1016.95 1017.82 1018.52 1019.03 1019.14 1019.43 1019.64 1019.94 1020.35 1020.54 1020.75 1020.89 1021.14 1021.43 1021.51 1021.58 1022.00 1022.39 1022.86 1023.46 1023.96 1024.52 1025.27 1026.10 1026.57 1026.84 1027.04 1027.21
1014.21 1014.89 1015.55 1016.03 1016.77 1017.74 1018.51 1018.84 1019.31 1019.46 1019.71 1020.17 1020.52 1020.62 1020.94 1021.17 1021.37 1021.72 1022.03 1021.99 1022.18 1022.58 1023.10 1023.73 1024.57 1025.05 1025.06 1026.55 1027.27 1027.69 1027.71 1027.69
1014.04 1014.90 1015.43 1015.80 1016.23 1017.02 1017.77 1018.39 1019.20 1019.20 1019.72 1020.20 1020.58 1020.73 1020.87 1021.16 1021.38 1021.65 1022.02 1022.14 1022.51 1022.84 1023.09 1023.64 1024.43 1024.73 1024.51 1025.30 1026.33 1027.54 1028.07 1028.40
1013.12 1014.38 1014.61 1015.29 1015.84 1016.72 1017.76 1018.50 1019.20 1019.47 1019.77 1020.18 1020.56 1020.94 1020.98 1021.13 1021.65 1021.78 1021.90 1022.03 1022.38 1022.77 1023.09 1023.29 1023.69 1024.81 1024.68 1024.36 1025.16 1025.48 1027.28 1028.43
1012.81 1013.66 1014.29 1014.99 1015.45 1015.85 1016.32 1016.82 1017.62 1018.12 1018.88 1019.80 1020.41 1020.87 1021.14 1021.22 1021.51 1021.98 1022.06 1022.03 1022.36 1022.64 1022.94 1023.19 1023.50 1023.95 1024.90 1024.98 1024.99 1024.88 1025.65 1027.40
1012.28 1013.16 1013.78 1014.39 1014.91 1015.24 1015.75 1016.51 1017.02 1018.02 1019.01 1019.76 1020.64 1020.98 1021.23 1021.36 1021.64 1022.00 1022.36 1022.28 1022.60 1022.85 1023.23 1023.47 1023.76 1024.05 1024.36 1024.91 1025.19 1025.42 1025.57 1025.81
1011.68 1012.36 1012.99 1013.82 1014.51 1014.96 1015.45 1016.07 1017.18 1018.06 1018.99 1019.74 1020.25 1021.10 1021.24 1021.64 1021.94 1022.23 1022.63 1022.89 1022.94 1023.16 1023.46 1023.80 1024.08 1024.46 1024.74 1025.01 1025.04 1025.05 1025.15 1025.42
1011.57 1012.24 1012.59 1013.24 1014.10 1014.73 1015.30 1015.99 1016.70 1017.51 1018.47 1019.16 1020.12 1020.67 1021.06 1021.67 1022.02 1022.51 1022.74 1023.12 1023.42 1023.62 1023.78 1024.18 1024.57 1024.83 1025.27 1025.50 1025.63 1025.73 1025.70 1025.73
1011.18 1011.85 1012.41 1013.19 1014.18 1015.02 1015.69 1016.24 1016.90 1017.69 1018.22 1019.19 1020.08 1020.32 1021.02 1021.62 1022.25 1022.63 1023.04 1023.44 1023.44 1023.95 1024.19 1024.53 1024.98 1025.42 1025.88 1026.20 1026.29 1026.34 1026.29 1026.07
Wind_Speed
10 11 10 8 9 10 9 9 9 9 9 9 10 10 10 10 9 9 9 8 8 8 9 8 8 9 8 8 9 6 8 6
10 9 9 8 9 9 10 9 9 9 9 9 9 9 9 9 8 8 7 7 7 7 7 8 8 8 7 7 7 5 9 8
9 9 9 7 7 8 9 9 9 8 8 8 7 6 7 7 7 7 6 5 5 7 6 5 6 7 7 8 6 6 8 7
10 10 10 9 6 7 6 7 6 6 6 7 5 6 5 5 5 5 4 4 5 6 6 4 2 6 7 6 7 8 8 9
13 9 9 10 8 5 4 4 4 4 6 5 5 5 4 4 3 3 2 2 2 3 4 5 7 6 7 7 8 9 8 9
15 12 10 9 6 5 5 4 4 3 3 4 4 3 4 4 3 3 2 2 4 5 5 7 9 11 11 11 11 9 8 8
16 15 12 8 8 6 5 4 3 3 3 3 3 3 3 4 3 3 4 4 5 5 6 7 8 11 11 12 13 12 12 8
17 16 14 12 7 8 6 4 4 3 2 3 4 3 4 5 5 5 5 5 5 5 6 7 8 10 12 12 12 11 12 11
17 16 13 12 11 10 6 5 4 4 3 4 5 5 5 7 6 5 5 5 7 7 8 8 9 10 13 11 11 12 11 11
16 13 14 13 9 8 7 6 5 4 3 3 5 5 6 6 5 5 5 5 5 6 6 8 9 9 9 9 9 10 12 11
16 16 16 14 11 8 7 8 5 5 4 3 5 6 6 5 5 5 5 5 5 6 6 7 9 10 10 9 9 8 9 9
15 14 15 13 9 8 6 5 5 5 5 4 5 4 5 5 4 5 5 5 6 6 9 9 9 10 11 10 9 8 7 7
15 14 13 11 9 7 5 5 6 5 4 6 6 6 6 5 4 5 4 4 6 9 11 13 10 12 9 9 9 9 8 7
15 14 15 12 9 7 5 7 5 6 5 5 5 6 6 5 5 5 5 6 8 10 12 10 9 7 5 6 5 4 6 6
16 16 18 15 13 10 7 7 5 5 6 6 5 6 6 6 5 5 6 5 7 9 10 9 9 5 6 0 4 3 6 3
18 18 17 14 16 13 17 12 11 6 8 7 6 7 7 6 6 5 5 5 6 7 8 8 8 8 4 2 2 6 4 5
14 17 17 16 16 15 13 11 6 8 7 11 7 6 6 7 6 6 5 4 5 6 7 7 6 6 4 3 3 3 4 3
14 17 18 17 17 16 16 15 11 10 10 8 7 5 6 6 6 6 5 5 5 5 6 6 5 4 3 3 2 2 4 4
12 15 18 18 18 17 16 14 14 14 13 8 10 7 6 7 8 7 6 7 6 6 7 7 6 5 5 4 4 3 2 3
14 16 16 15 15 14 12 12 6 7 9 8 6 7 8 9 8 8 8 8 9 8 7 7 9 8 9 7 6 5 4 4
Wind_Direction
150 154 145 129 128 127 127 122 114 109 107 107 106 105 101 102 103 106 103 96 88 83 77 69 57 55 48 55 77 62 68 68
153 148 153 155 149 134 131 123 116 111 107 106 107 105 102 98 110 100 96 90 79 71 72 67 62 67 66 75 73 66 60 63
155 153 152 154 150 140 133 126 120 118 114 102 112 102 107 116 87 97 90 77 61 50 40 48 98 88 77 78 67 59 66 70
170 166 158 155 153 145 137 132 130 126 125 122 113 112 108 100 98 97 85 61 44 39 31 53 78 94 104 99 76 73 67 77
175 170 169 161 149 147 146 138 134 128 130 136 128 130 130 126 122 118 99 74 62 54 77 65 75 79 80 78 84 78 78 72
172 174 170 163 153 149 149 149 140 136 124 163 166 163 155 143 126 113 129 98 92 94 84 80 76 74 78 78 71 77 83 78
174 170 167 167 160 152 150 149 139 108 112 110 169 179 160 151 118 94 93 106 108 101 93 90 90 83 82 86 86 82 83 83
177 172 165 161 164 158 153 150 134 131 101 86 126 146 151 142 131 113 103 102 94 93 98 94 87 88 82 80 81 83 81 80
175 166 165 168 162 160 160 146 144 138 113 93 107 122 136 134 131 124 114 106 107 106 102 99 98 93 89 85 86 83 81 81
169 163 166 166 164 162 156 149 142 135 136 133 126 126 136 135 133 123 121 121 122 117 114 106 101 99 93 86 87 86 84 81
171 168 167 163 151 147 146 146 144 137 137 143 141 139 143 138 130 126 140 133 126 124 114 117 116 108 99 90 84 80 79 81
174 169 161 153 139 133 131 139 137 144 146 147 150 147 143 138 127 134 145 137 134 130 123 121 119 117 101 85 77 77 80 78
177 165 158 154 145 147 148 154 155 144 147 148 158 149 145 145 140 142 146 143 137 139 132 131 125 130 112 92 79 72 72 74
176 177 167 170 165 160 158 154 167 146 144 142 150 146 141 143 147 145 144 136 141 150 151 143 139 169 131 129 148 120 73 60
175 178 178 177 163 138 123 115 124 149 156 148 142 145 138 135 137 145 150 155 158 163 168 169 159 175 179 218 159 151 144 106
186 183 181 178 170 169 171 179 172 180 163 147 145 147 142 139 137 145 150 144 154 166 169 171 175 169 162 80 60 127 165 158
182 183 184 182 184 184 180 183 164 144 143 143 145 142 141 134 133 135 138 144 144 166 170 173 172 169 171 148 127 111 118 146
181 184 190 185 189 187 189 174 153 147 154 160 152 154 143 135 131 128 127 129 137 131 143 154 150 133 150 154 189 198 173 162
181 190 196 190 192 190 188 175 166 167 165 160 155 159 157 153 142 141 132 127 121 126 120 119 122 123 124 109 92 82 143 122
186 193 196 188 192 192 185 174 170 169 161 162 174 163 157 146 143 138 134 132 123 120 113 109 113 108 104 93 93 78 95 113